Location: Les Martinières
(47.2667°N, 1.4410°E)
Time: 02:20:42
(UTC+00:00)

YAOGAN 11 - Pass Details

Date: 15 May 2026
Orbit: 599 x 646 km, 98.4° (Epoch: 8 June)

Event Time Altitude Azimuth Distance (km) Brightness Sun altitude
Rises 20:46:27 0° 14° (NNE) 2,946 8.0 -11.9°
Reaches altitude 10° 20:48:39 10° 16° (NNE) 2,039 7.1 -12.1°
Maximum altitude 20:53:06 81° 104° (ESE) 657 4.1 -12.7°
Drops below altitude 10° 20:57:34 10° 192° (SSW) 2,039 6.4 -13.2°
Enters shadow 20:58:40 - 193° (SSW) 2,494 6.8 -13.3°
